Location: Sobotiste
(48.7170°N, 17.4000°E)
Time: 05:27:50
(UTC+02:00)

METEOR M2 - Pass Details

Date: 22 March 2026
Orbit: 817 x 824 km, 98.5° (Epoch: 17 April)

Event Time Altitude Azimuth Distance (km) Brightness Sun altitude
Rises 04:54:19 0° 10° (N) 3,373 ? -9.9°
Reaches altitude 10° 04:56:43 10° 6° (N) 2,436 ? -9.5°
Maximum altitude 05:01:56 52° 292° (WNW) 1,017 ? -8.6°
Drops below altitude 10° 05:07:07 10° 217° (SW) 2,417 ? -7.8°
Sets 05:09:30 0° 212° (SSW) 3,345 ? -7.4°
